Time,TemperatureF,DewpointF,PressureIn,WindDirection,WindDirectionDegrees,WindSpeedMPH,WindSpeedGustMPH,Humidity,HourlyPrecipIn,Conditions,Clouds,dailyrainin,SoftwareType,DateUTC
2013-04-19 00:00:00,52.3,6.0,30.10,North,11,3.0,6.0,15,0.00,,---,0.00,VWS V14.01,2013-04-19 07:00:00,
2013-04-19 00:05:00,52.5,6.2,30.10,NE,42,3.0,3.0,15,0.00,,---,0.00,VWS V14.01,2013-04-19 07:05:00,
2013-04-19 00:10:00,52.6,6.3,30.10,NNE,30,4.0,7.0,15,0.00,,---,0.00,VWS V14.01,2013-04-19 07:10:00,
2013-04-19 00:15:00,52.9,6.5,30.10,North,1,3.0,9.0,15,0.00,,---,0.00,VWS V14.01,2013-04-19 07:15:00,
2013-04-19 00:20:00,52.9,5.0,30.10,NW,312,5.0,9.0,14,0.00,,---,0.00,VWS V14.01,2013-04-19 07:20:00,
2013-04-19 00:25:00,53.0,5.1,30.10,WSW,245,5.0,9.0,14,0.00,,---,0.00,VWS V14.01,2013-04-19 07:25:00,
2013-04-19 00:30:00,53.3,5.3,30.10,NE,35,6.0,9.0,14,0.00,,---,0.00,VWS V14.01,2013-04-19 07:30:00,
2013-04-19 00:36:00,53.7,4.0,30.10,NNW,345,6.0,9.0,13,0.00,,---,0.00,VWS V14.01,2013-04-19 07:36:00,
2013-04-19 00:41:00,53.8,4.1,30.09,North,353,9.0,10.0,13,0.00,,---,0.00,VWS V14.01,2013-04-19 07:41:00,
2013-04-19 00:46:00,53.8,4.1,30.10,North,353,6.0,12.0,13,0.00,,---,0.00,VWS V14.01,2013-04-19 07:46:00,
2013-04-19 00:51:00,53.5,3.9,30.09,North,355,3.0,12.0,13,0.00,,---,0.00,VWS V14.01,2013-04-19 07:51:00,
2013-04-19 00:56:00,53.3,3.7,30.10,North,1,6.0,12.0,13,0.00,,---,0.00,VWS V14.01,2013-04-19 07:56:00,
2013-04-19 01:00:00,53.1,3.6,30.09,North,0,5.0,12.0,13,0.00,,---,0.00,VWS V14.01,2013-04-19 08:00:00,
2013-04-19 01:01:00,53.1,3.6,30.10,NNE,23,6.0,12.0,13,0.00,,---,0.00,VWS V14.01,2013-04-19 08:01:00,
2013-04-19 01:07:00,53.0,3.5,30.09,North,356,6.0,9.0,13,0.00,,---,0.00,VWS V14.01,2013-04-19 08:07:00,
2013-04-19 01:12:00,52.9,3.4,30.09,NNE,21,10.0,13.0,13,0.00,,---,0.00,VWS V14.01,2013-04-19 08:12:00,
2013-04-19 01:17:00,52.7,4.8,30.09,North,1,7.0,13.0,14,0.00,,---,0.00,VWS V14.01,2013-04-19 08:17:00,
2013-04-19 01:22:00,52.5,4.7,30.09,NNE,13,10.0,13.0,14,0.00,,---,0.00,VWS V14.01,2013-04-19 08:22:00,
2013-04-19 01:27:00,52.3,4.5,30.09,NNE,18,5.0,13.0,14,0.00,,---,0.00,VWS V14.01,2013-04-19 08:27:00,
2013-04-19 01:30:00,51.9,4.2,30.09,NNE,22,6.0,13.0,14,0.00,,---,0.00,VWS V14.01,2013-04-19 08:30:00,
2013-04-19 01:32:00,52.0,4.3,30.09,NNE,25,5.0,13.0,14,0.00,,---,0.00,VWS V14.01,2013-04-19 08:32:00,
2013-04-19 01:37:00,51.7,4.1,30.09,NE,37,6.0,9.0,14,0.00,,---,0.00,VWS V14.01,2013-04-19 08:37:00,
2013-04-19 01:42:00,51.6,4.0,30.09,NNE,13,9.0,10.0,14,0.00,,---,0.00,VWS V14.01,2013-04-19 08:42:00,
2013-04-19 01:47:00,51.4,3.8,30.09,NNE,29,4.0,12.0,14,0.00,,---,0.00,VWS V14.01,2013-04-19 08:47:00,
2013-04-19 01:52:00,51.4,3.8,30.09,North,9,6.0,13.0,14,0.00,,---,0.00,VWS V14.01,2013-04-19 08:52:00,
2013-04-19 01:58:00,51.3,3.7,30.09,NNE,15,5.0,13.0,14,0.00,,---,0.00,VWS V14.01,2013-04-19 08:58:00,
2013-04-19 02:00:00,51.1,3.6,30.09,NNE,22,6.0,13.0,14,0.00,,---,0.00,VWS V14.01,2013-04-19 09:00:00,
2013-04-19 02:03:00,51.1,3.6,30.09,North,4,5.0,13.0,14,0.00,,---,0.00,VWS V14.01,2013-04-19 09:03:00,
2013-04-19 02:08:00,51.1,3.6,30.09,NNE,26,4.0,10.0,14,0.00,,---,0.00,VWS V14.01,2013-04-19 09:08:00,
2013-04-19 02:13:00,51.0,3.5,30.08,NNE,22,6.0,10.0,14,0.00,,---,0.00,VWS V14.01,2013-04-19 09:13:00,
2013-04-19 02:18:00,51.0,3.5,30.09,NNE,32,7.0,10.0,14,0.00,,---,0.00,VWS V14.01,2013-04-19 09:18:00,
2013-04-19 02:23:00,51.2,3.7,30.08,North,359,5.0,15.0,14,0.00,,---,0.00,VWS V14.01,2013-04-19 09:23:00,
2013-04-19 02:28:00,51.6,2.4,30.08,North,359,6.0,15.0,13,0.00,,---,0.00,VWS V14.01,2013-04-19 09:28:00,
2013-04-19 02:30:00,51.9,2.6,30.08,NNE,22,6.0,15.0,13,0.00,,---,0.00,VWS V14.01,2013-04-19 09:30:00,
2013-04-19 02:33:00,51.9,2.6,30.08,NNE,21,7.0,15.0,13,0.00,,---,0.00,VWS V14.01,2013-04-19 09:33:00,
2013-04-19 02:38:00,51.9,2.6,30.08,NW,316,5.0,11.0,13,0.00,,---,0.00,VWS V14.01,2013-04-19 09:38:00,
2013-04-19 02:43:00,51.7,2.5,30.08,NNE,13,7.0,11.0,13,0.00,,---,0.00,VWS V14.01,2013-04-19 09:43:00,
2013-04-19 02:48:00,51.6,2.4,30.08,NNW,331,4.0,11.0,13,0.00,,---,0.00,VWS V14.01,2013-04-19 09:48:00,
2013-04-19 02:54:00,51.6,2.4,30.08,South,184,3.0,13.0,13,0.00,,---,0.00,VWS V14.01,2013-04-19 09:54:00,
2013-04-19 02:59:00,51.4,2.2,30.08,North,352,6.0,13.0,13,0.00,,---,0.00,VWS V14.01,2013-04-19 09:59:00,
2013-04-19 03:00:00,51.3,2.1,30.09,NNE,22,5.0,14.0,13,0.00,,---,0.00,VWS V14.01,2013-04-19 10:00:00,
2013-04-19 03:04:00,51.3,2.1,30.09,NNW,336,3.0,13.0,13,0.00,,---,0.00,VWS V14.01,2013-04-19 10:04:00,
2013-04-19 03:09:00,51.4,2.2,30.09,ESE,105,4.0,10.0,13,0.00,,---,0.00,VWS V14.01,2013-04-19 10:09:00,
2013-04-19 03:14:00,51.4,2.2,30.09,North,351,7.0,13.0,13,0.00,,---,0.00,VWS V14.01,2013-04-19 10:14:00,
2013-04-19 03:19:00,51.3,2.1,30.08,North,351,4.0,13.0,13,0.00,,---,0.00,VWS V14.01,2013-04-19 10:19:00,
2013-04-19 03:24:00,51.1,2.0,30.08,NE,37,7.0,13.0,13,0.00,,---,0.00,VWS V14.01,2013-04-19 10:24:00,
2013-04-19 03:29:00,51.0,1.9,30.08,NNW,332,8.0,13.0,13,0.00,,---,0.00,VWS V14.01,2013-04-19 10:29:00,
2013-04-19 03:30:00,50.8,1.7,30.08,NNE,22,5.0,13.0,13,0.00,,---,0.00,VWS V14.01,2013-04-19 10:30:00,
2013-04-19 03:34:00,50.8,3.3,30.08,North,11,3.0,7.0,14,0.00,,---,0.00,VWS V14.01,2013-04-19 10:34:00,
2013-04-19 03:39:00,50.5,3.1,30.08,NNW,338,5.0,9.0,14,0.00,,---,0.00,VWS V14.01,2013-04-19 10:39:00,
2013-04-19 03:44:00,50.4,3.0,30.09,NNW,345,2.0,9.0,14,0.00,,---,0.00,VWS V14.01,2013-04-19 10:44:00,
2013-04-19 03:50:00,50.2,2.8,30.09,NW,321,5.0,9.0,14,0.00,,---,0.00,VWS V14.01,2013-04-19 10:50:00,
2013-04-19 03:55:00,50.3,2.9,30.09,North,5,4.0,9.0,14,0.00,,---,0.00,VWS V14.01,2013-04-19 10:55:00,
2013-04-19 04:00:00,50.4,3.0,30.08,NNE,31,1.0,9.0,14,0.00,,---,0.00,VWS V14.01,2013-04-19 11:00:00,
2013-04-19 04:05:00,50.3,2.9,30.08,NNE,23,4.0,6.0,14,0.00,,---,0.00,VWS V14.01,2013-04-19 11:05:00,
2013-04-19 04:10:00,50.2,2.8,30.08,North,352,4.0,6.0,14,0.00,,---,0.00,VWS V14.01,2013-04-19 11:10:00,
2013-04-19 04:15:00,50.1,2.8,30.08,NNE,23,3.0,7.0,14,0.00,,---,0.00,VWS V14.01,2013-04-19 11:15:00,
2013-04-19 04:20:00,49.9,2.6,30.08,NNE,18,3.0,7.0,14,0.00,,---,0.00,VWS V14.01,2013-04-19 11:20:00,
2013-04-19 04:25:00,49.8,4.0,30.08,NE,40,1.0,7.0,15,0.00,,---,0.00,VWS V14.01,2013-04-19 11:25:00,
2013-04-19 04:30:00,48.6,4.4,30.08,NE,48,0.0,7.0,16,0.00,,---,0.00,VWS V14.01,2013-04-19 11:30:00,
2013-04-19 04:35:00,47.7,5.0,30.08,NE,46,0.0,2.0,17,0.00,,---,0.00,VWS V14.01,2013-04-19 11:35:00,
2013-04-19 04:40:00,47.1,4.5,30.08,ENE,63,2.0,2.0,17,0.00,,---,0.00,VWS V14.01,2013-04-19 11:40:00,
2013-04-19 04:45:00,46.8,4.3,30.08,NE,46,1.0,2.0,17,0.00,,---,0.00,VWS V14.01,2013-04-19 11:45:00,
2013-04-19 04:51:00,46.7,4.2,30.08,NE,51,2.0,3.0,17,0.00,,---,0.00,VWS V14.01,2013-04-19 11:51:00,
2013-04-19 04:56:00,46.7,4.2,30.08,NNE,25,2.0,4.0,17,0.00,,---,0.00,VWS V14.01,2013-04-19 11:56:00,
2013-04-19 05:00:00,48.0,4.0,30.08,NE,45,2.0,8.0,16,0.00,,---,0.00,VWS V14.01,2013-04-19 12:00:00,
2013-04-19 05:01:00,47.5,3.6,30.08,NE,36,3.0,7.0,16,0.00,,---,0.00,VWS V14.01,2013-04-19 12:01:00,
2013-04-19 05:06:00,48.4,2.9,30.08,North,354,5.0,7.0,15,0.00,,---,0.00,VWS V14.01,2013-04-19 12:06:00,
2013-04-19 05:11:00,48.7,3.1,30.08,NNW,347,5.0,8.0,15,0.00,,---,0.00,VWS V14.01,2013-04-19 12:11:00,
2013-04-19 05:16:00,49.1,3.5,30.08,North,349,4.0,9.0,15,0.00,,---,0.00,VWS V14.01,2013-04-19 12:16:00,
2013-04-19 05:21:00,49.1,3.5,30.08,NNE,15,4.0,10.0,15,0.00,,---,0.00,VWS V14.01,2013-04-19 12:21:00,
2013-04-19 05:26:00,49.2,3.5,30.08,NNE,27,5.0,10.0,15,0.00,,---,0.00,VWS V14.01,2013-04-19 12:26:00,
2013-04-19 05:30:00,49.1,3.5,30.09,NNE,22,4.0,10.0,15,0.00,,---,0.00,VWS V14.01,2013-04-19 12:30:00,
2013-04-19 05:31:00,49.1,3.5,30.09,NW,326,3.0,10.0,15,0.00,,---,0.00,VWS V14.01,2013-04-19 12:31:00,
2013-04-19 05:37:00,49.0,3.4,30.09,North,356,3.0,7.0,15,0.00,,---,0.00,VWS V14.01,2013-04-19 12:37:00,
2013-04-19 05:42:00,49.1,3.5,30.09,NNE,18,3.0,9.0,15,0.00,,---,0.00,VWS V14.01,2013-04-19 12:42:00,
2013-04-19 05:47:00,49.0,3.4,30.09,NE,41,10.0,10.0,15,0.00,,---,0.00,VWS V14.01,2013-04-19 12:47:00,
2013-04-19 05:52:00,48.9,3.3,30.09,NE,37,3.0,10.0,15,0.00,,---,0.00,VWS V14.01,2013-04-19 12:52:00,
2013-04-19 05:57:00,48.8,3.2,30.09,NNE,27,3.0,10.0,15,0.00,,---,0.00,VWS V14.01,2013-04-19 12:57:00,
2013-04-19 06:00:00,48.6,3.0,30.09,NNE,22,4.0,10.0,15,0.00,,---,0.00,VWS V14.01,2013-04-19 13:00:00,
2013-04-19 06:02:00,48.7,3.1,30.09,NW,314,1.0,10.0,15,0.00,,---,0.00,VWS V14.01,2013-04-19 13:02:00,
2013-04-19 06:07:00,48.5,3.0,30.09,North,355,3.0,7.0,15,0.00,,---,0.00,VWS V14.01,2013-04-19 13:07:00,
2013-04-19 06:12:00,48.3,4.2,30.10,NNE,16,2.0,7.0,16,0.00,,---,0.00,VWS V14.01,2013-04-19 13:12:00,
2013-04-19 06:17:00,48.2,4.1,30.10,West,280,1.0,7.0,16,0.00,,---,0.00,VWS V14.01,2013-04-19 13:17:00,
2013-04-19 06:23:00,48.4,4.3,30.10,NNW,338,2.0,7.0,16,0.00,,---,0.00,VWS V14.01,2013-04-19 13:23:00,
2013-04-19 06:28:00,49.4,5.1,30.10,North,11,1.0,7.0,16,0.00,,---,0.00,VWS V14.01,2013-04-19 13:28:00,
2013-04-19 06:30:00,50.1,4.3,30.10,North,0,2.0,7.0,15,0.00,,---,0.00,VWS V14.01,2013-04-19 13:30:00,
2013-04-19 06:33:00,50.0,4.2,30.10,North,8,2.0,7.0,15,0.00,,---,0.00,VWS V14.01,2013-04-19 13:33:00,
2013-04-19 06:38:00,50.7,4.8,30.10,North,358,1.0,4.0,15,0.00,,---,0.00,VWS V14.01,2013-04-19 13:38:00,
2013-04-19 06:43:00,51.4,5.3,30.10,NE,35,1.0,4.0,15,0.00,,---,0.00,VWS V14.01,2013-04-19 13:43:00,
2013-04-19 06:48:00,51.8,7.1,30.10,East,93,0.0,4.0,16,0.00,,---,0.00,VWS V14.01,2013-04-19 13:48:00,
2013-04-19 06:53:00,51.0,7.7,30.10,NE,51,1.0,4.0,17,0.00,,---,0.00,VWS V14.01,2013-04-19 13:53:00,
2013-04-19 06:58:00,50.4,7.2,30.09,ENE,70,1.0,4.0,17,0.00,,---,0.00,VWS V14.01,2013-04-19 13:58:00,
2013-04-19 07:00:00,50.3,9.6,30.09,ENE,68,1.0,4.0,19,0.00,,---,0.00,VWS V14.01,2013-04-19 14:00:00,
2013-04-19 07:03:00,50.3,8.4,30.09,NE,36,0.0,4.0,18,0.00,,---,0.00,VWS V14.01,2013-04-19 14:03:00,
2013-04-19 07:08:00,52.1,9.9,30.09,NE,36,0.0,1.0,18,0.00,,---,0.00,VWS V14.01,2013-04-19 14:08:00,
2013-04-19 07:14:00,52.6,9.1,30.09,East,82,1.0,1.0,17,0.00,,---,0.00,VWS V14.01,2013-04-19 14:14:00,
2013-04-19 07:19:00,53.0,9.4,30.10,East,82,0.0,2.0,17,0.00,,---,0.00,VWS V14.01,2013-04-19 14:19:00,
2013-04-19 07:24:00,54.5,9.2,30.10,East,82,0.0,2.0,16,0.00,,---,0.00,VWS V14.01,2013-04-19 14:24:00,
2013-04-19 07:29:00,55.8,8.9,30.11,North,355,0.0,2.0,15,0.00,,---,0.00,VWS V14.01,2013-04-19 14:29:00,
2013-04-19 07:30:00,56.9,11.2,30.11,East,90,0.0,2.0,16,0.00,,---,0.00,VWS V14.01,2013-04-19 14:30:00,
2013-04-19 07:34:00,56.9,11.2,30.11,ESE,118,1.0,1.0,16,0.00,,---,0.00,VWS V14.01,2013-04-19 14:34:00,
2013-04-19 07:39:00,57.6,11.8,30.11,SSE,152,0.0,2.0,16,0.00,,---,0.00,VWS V14.01,2013-04-19 14:39:00,
2013-04-19 07:44:00,58.6,12.6,30.11,SSE,150,0.0,2.0,16,0.00,,---,0.00,VWS V14.01,2013-04-19 14:44:00,
2013-04-19 07:49:00,58.8,11.3,30.11,ESE,120,0.0,2.0,15,0.00,,---,0.00,VWS V14.01,2013-04-19 14:49:00,
2013-04-19 07:54:00,58.5,11.0,30.11,ESE,113,0.0,3.0,15,0.00,,---,0.00,VWS V14.01,2013-04-19 14:54:00,
2013-04-19 07:59:00,58.6,9.6,30.11,ESE,121,0.0,3.0,14,0.00,,---,0.00,VWS V14.01,2013-04-19 14:59:00,
2013-04-19 08:00:00,59.1,10.0,30.11,ESE,112,0.0,3.0,14,0.00,,---,0.00,VWS V14.01,2013-04-19 15:00:00,
2013-04-19 08:04:00,59.3,10.1,30.11,East,95,0.0,1.0,14,0.00,,---,0.00,VWS V14.01,2013-04-19 15:04:00,
2013-04-19 08:09:00,59.9,10.6,30.11,ENE,57,0.0,2.0,14,0.00,,---,0.00,VWS V14.01,2013-04-19 15:09:00,
2013-04-19 08:15:00,60.5,7.7,30.11,North,8,0.0,2.0,12,0.00,,---,0.00,VWS V14.01,2013-04-19 15:15:00,
2013-04-19 08:20:00,60.7,9.6,30.11,NE,55,0.0,3.0,13,0.00,,---,0.00,VWS V14.01,2013-04-19 15:20:00,
2013-04-19 08:25:00,60.9,9.8,30.11,NNE,22,0.0,6.0,13,0.00,,---,0.00,VWS V14.01,2013-04-19 15:25:00,
2013-04-19 08:30:00,61.4,8.4,30.11,NNW,339,1.0,6.0,12,0.00,,---,0.00,VWS V14.01,2013-04-19 15:30:00,
2013-04-19 08:35:00,62.4,7.2,30.11,East,79,0.0,1.0,11,0.00,,---,0.00,VWS V14.01,2013-04-19 15:35:00,
2013-04-19 08:40:00,63.2,9.8,30.11,ESE,112,0.0,2.0,12,0.00,,---,0.00,VWS V14.01,2013-04-19 15:40:00,
2013-04-19 08:45:00,63.6,10.1,30.11,South,173,0.0,2.0,12,0.00,,---,0.00,VWS V14.01,2013-04-19 15:45:00,
2013-04-19 08:50:00,63.5,8.1,30.11,South,191,1.0,4.0,11,0.00,,---,0.00,VWS V14.01,2013-04-19 15:50:00,
2013-04-19 08:55:00,64.3,8.7,30.11,South,170,2.0,4.0,11,0.00,,---,0.00,VWS V14.01,2013-04-19 15:55:00,
2013-04-19 09:00:00,64.6,8.9,30.11,SW,228,3.0,4.0,11,0.00,,---,0.00,VWS V14.01,2013-04-19 16:00:00,
2013-04-19 09:06:00,64.1,6.4,30.11,WSW,238,1.0,5.0,10,0.00,,---,0.00,VWS V14.01,2013-04-19 16:06:00,
2013-04-19 09:11:00,64.0,8.5,30.11,WSW,245,0.0,6.0,11,0.00,,---,0.00,VWS V14.01,2013-04-19 16:11:00,
2013-04-19 09:16:00,64.4,8.8,30.12,SW,236,2.0,6.0,11,0.00,,---,0.00,VWS V14.01,2013-04-19 16:16:00,
2013-04-19 09:21:00,64.1,10.5,30.12,SSE,162,2.0,7.0,12,0.00,,---,0.00,VWS V14.01,2013-04-19 16:21:00,
2013-04-19 09:26:00,63.9,10.3,30.12,South,176,1.0,7.0,12,0.00,,---,0.00,VWS V14.01,2013-04-19 16:26:00,
2013-04-19 09:30:00,64.8,9.1,30.12,SW,225,2.0,7.0,11,0.00,,---,0.00,VWS V14.01,2013-04-19 16:30:00,
2013-04-19 09:31:00,64.2,8.6,30.11,SE,128,0.0,7.0,11,0.00,,---,0.00,VWS V14.01,2013-04-19 16:31:00,
2013-04-19 09:36:00,65.4,11.5,30.12,SW,229,3.0,3.0,12,0.00,,---,0.00,VWS V14.01,2013-04-19 16:36:00,
2013-04-19 09:41:00,65.4,9.6,30.11,SSE,162,5.0,7.0,11,0.00,,---,0.00,VWS V14.01,2013-04-19 16:41:00,
2013-04-19 09:46:00,65.9,9.9,30.12,ESE,112,1.0,7.0,11,0.00,,---,0.00,VWS V14.01,2013-04-19 16:46:00,
2013-04-19 09:51:00,65.9,9.9,30.11,SE,142,4.0,7.0,11,0.00,,---,0.00,VWS V14.01,2013-04-19 16:51:00,
2013-04-19 09:56:00,66.1,10.1,30.11,SW,224,4.0,7.0,11,0.00,,---,0.00,VWS V14.01,2013-04-19 16:56:00,
2013-04-19 10:00:00,66.8,10.6,30.11,SW,225,2.0,7.0,11,0.00,,---,0.00,VWS V14.01,2013-04-19 17:00:00,
2013-04-19 10:02:00,66.7,8.4,30.11,West,278,2.0,7.0,10,0.00,,---,0.00,VWS V14.01,2013-04-19 17:02:00,
2013-04-19 10:07:00,66.7,6.1,30.11,West,274,5.0,7.0,9,0.00,,---,0.00,VWS V14.01,2013-04-19 17:07:00,
2013-04-19 10:12:00,66.7,8.4,30.11,West,262,3.0,7.0,10,0.00,,---,0.00,VWS V14.01,2013-04-19 17:12:00,
2013-04-19 10:17:00,67.4,6.6,30.10,West,276,3.0,7.0,9,0.00,,---,0.00,VWS V14.01,2013-04-19 17:17:00,
2013-04-19 10:22:00,67.4,6.6,30.10,South,170,2.0,7.0,9,0.00,,---,0.00,VWS V14.01,2013-04-19 17:22:00,
2013-04-19 10:27:00,67.6,4.2,30.10,West,267,3.0,7.0,8,0.00,,---,0.00,VWS V14.01,2013-04-19 17:27:00,
2013-04-19 10:30:00,67.5,6.7,30.09,WSW,248,2.0,8.0,9,0.00,,---,0.00,VWS V14.01,2013-04-19 17:30:00,
2013-04-19 10:32:00,67.6,4.2,30.09,WSW,250,0.0,8.0,8,0.00,,---,0.00,VWS V14.01,2013-04-19 17:32:00,
2013-04-19 10:37:00,67.7,6.9,30.09,South,172,2.0,7.0,9,0.00,,---,0.00,VWS V14.01,2013-04-19 17:37:00,
2013-04-19 10:42:00,68.3,4.7,30.09,SE,132,1.0,8.0,8,0.00,,---,0.00,VWS V14.01,2013-04-19 17:42:00,
2013-04-19 10:47:00,68.8,5.1,30.09,WSW,247,0.0,8.0,8,0.00,,---,0.00,VWS V14.01,2013-04-19 17:47:00,
2013-04-19 10:52:00,69.3,5.5,30.09,West,260,5.0,10.0,8,0.00,,---,0.00,VWS V14.01,2013-04-19 17:52:00,
2013-04-19 10:57:00,69.6,5.7,30.09,WSW,255,3.0,10.0,8,0.00,,---,0.00,VWS V14.01,2013-04-19 17:57:00,
2013-04-19 11:00:00,70.1,3.2,30.09,WSW,248,3.0,10.0,7,0.00,,---,0.00,VWS V14.01,2013-04-19 18:00:00,
2013-04-19 11:02:00,69.9,8.5,30.09,SW,219,2.0,10.0,9,0.00,,---,0.00,VWS V14.01,2013-04-19 18:02:00,
2013-04-19 11:07:00,70.4,6.3,30.09,SSW,212,4.0,10.0,8,0.00,,---,0.00,VWS V14.01,2013-04-19 18:07:00,
2013-04-19 11:13:00,70.3,3.3,30.09,SW,219,4.0,10.0,7,0.00,,---,0.00,VWS V14.01,2013-04-19 18:13:00,
2013-04-19 11:18:00,70.9,6.7,30.09,West,263,6.0,10.0,8,0.00,,---,0.00,VWS V14.01,2013-04-19 18:18:00,
2013-04-19 11:23:00,70.9,3.8,30.09,SSE,156,3.0,10.0,7,0.00,,---,0.00,VWS V14.01,2013-04-19 18:23:00,
2013-04-19 11:28:00,70.7,0.3,30.09,WNW,288,2.0,10.0,6,0.00,,---,0.00,VWS V14.01,2013-04-19 18:28:00,
2013-04-19 11:30:00,71.5,0.9,30.09,WSW,248,3.0,10.0,6,0.00,,---,0.00,VWS V14.01,2013-04-19 18:30:00,
2013-04-19 11:33:00,71.6,4.3,30.09,SW,231,2.0,10.0,7,0.00,,---,0.00,VWS V14.01,2013-04-19 18:33:00,
2013-04-19 11:38:00,71.9,4.5,30.08,WSW,246,3.0,6.0,7,0.00,,---,0.00,VWS V14.01,2013-04-19 18:38:00,
2013-04-19 11:43:00,72.5,-2.2,30.08,WSW,255,3.0,6.0,5,0.00,,---,0.00,VWS V14.01,2013-04-19 18:43:00,
2013-04-19 11:48:00,72.7,5.1,30.08,WSW,243,3.0,7.0,7,0.00,,---,0.00,VWS V14.01,2013-04-19 18:48:00,
2013-04-19 11:53:00,72.1,1.3,30.08,NNW,346,3.0,10.0,6,0.00,,---,0.00,VWS V14.01,2013-04-19 18:53:00,
2013-04-19 11:58:00,73.2,2.1,30.08,North,6,0.0,10.0,6,0.00,,---,0.00,VWS V14.01,2013-04-19 18:58:00,
2013-04-19 12:00:00,74.0,-1.2,30.08,WSW,248,3.0,10.0,5,0.00,,---,0.00,VWS V14.01,2013-04-19 19:00:00,
2013-04-19 12:04:00,74.0,-1.2,30.08,North,359,1.0,10.0,5,0.00,,---,0.00,VWS V14.01,2013-04-19 19:04:00,
2013-04-19 12:09:00,74.1,-1.1,30.07,NE,46,4.0,8.0,5,0.00,,---,0.00,VWS V14.01,2013-04-19 19:09:00,
2013-04-19 12:14:00,73.3,2.2,30.07,West,260,1.0,8.0,6,0.00,,---,0.00,VWS V14.01,2013-04-19 19:14:00,
2013-04-19 12:19:00,74.2,-1.0,30.07,WNW,284,4.0,9.0,5,0.00,,---,0.00,VWS V14.01,2013-04-19 19:19:00,
2013-04-19 12:24:00,74.1,-1.1,30.07,NNE,20,1.0,9.0,5,0.00,,---,0.00,VWS V14.01,2013-04-19 19:24:00,
2013-04-19 12:29:00,74.3,-1.0,30.06,NW,320,1.0,9.0,5,0.00,,---,0.00,VWS V14.01,2013-04-19 19:29:00,
2013-04-19 12:30:00,74.8,3.3,30.06,West,270,3.0,9.0,6,0.00,,---,0.00,VWS V14.01,2013-04-19 19:30:00,
2013-04-19 12:34:00,75.1,-0.4,30.06,West,269,2.0,2.0,5,0.00,,---,0.00,VWS V14.01,2013-04-19 19:34:00,
2013-04-19 12:39:00,74.3,-5.6,30.06,East,96,2.0,6.0,4,0.00,,---,0.00,VWS V14.01,2013-04-19 19:39:00,
2013-04-19 12:44:00,75.1,-0.4,30.06,NNW,347,1.0,6.0,5,0.00,,---,0.00,VWS V14.01,2013-04-19 19:44:00,
2013-04-19 12:49:00,75.8,-4.6,30.05,SSW,198,2.0,6.0,4,0.00,,---,0.00,VWS V14.01,2013-04-19 19:49:00,
2013-04-19 12:54:00,76.0,-4.5,30.05,East,98,0.0,6.0,4,0.00,,---,0.00,VWS V14.01,2013-04-19 19:54:00,
2013-04-19 12:59:00,76.8,0.8,30.05,NNW,329,2.0,6.0,5,0.00,,---,0.00,VWS V14.01,2013-04-19 19:59:00,
2013-04-19 13:00:00,77.3,1.1,30.04,SW,225,2.0,6.0,5,0.00,,---,0.00,VWS V14.01,2013-04-19 20:00:00,
2013-04-19 13:04:00,77.3,-3.6,30.04,West,274,3.0,4.0,4,0.00,,---,0.00,VWS V14.01,2013-04-19 20:04:00,
2013-04-19 13:10:00,76.5,0.6,30.04,WSW,258,4.0,6.0,5,0.00,,---,0.00,VWS V14.01,2013-04-19 20:10:00,
2013-04-19 13:15:00,75.9,-4.5,30.04,SW,226,2.0,7.0,4,0.00,,---,0.00,VWS V14.01,2013-04-19 20:15:00,
2013-04-19 13:20:00,75.3,-0.3,30.03,WSW,245,4.0,7.0,5,0.00,,---,0.00,VWS V14.01,2013-04-19 20:20:00,
2013-04-19 13:25:00,75.2,6.9,30.03,SW,232,4.0,8.0,7,0.00,,---,0.00,VWS V14.01,2013-04-19 20:25:00,
2013-04-19 13:30:00,75.9,-4.5,30.03,WNW,286,2.0,8.0,4,0.00,,---,0.00,VWS V14.01,2013-04-19 20:30:00,
2013-04-19 13:35:00,75.8,0.1,30.02,North,9,0.0,5.0,5,0.00,,---,0.00,VWS V14.01,2013-04-19 20:35:00,
2013-04-19 13:40:00,76.5,0.6,30.02,SW,214,2.0,5.0,5,0.00,,---,0.00,VWS V14.01,2013-04-19 20:40:00,
2013-04-19 13:45:00,77.3,1.1,30.02,WNW,285,2.0,5.0,5,0.00,,---,0.00,VWS V14.01,2013-04-19 20:45:00,
2013-04-19 13:50:00,77.2,1.1,30.01,WNW,284,5.0,8.0,5,0.00,,---,0.00,VWS V14.01,2013-04-19 20:50:00,
2013-04-19 13:55:00,77.2,1.1,30.01,SW,236,4.0,8.0,5,0.00,,---,0.00,VWS V14.01,2013-04-19 20:55:00,
2013-04-19 14:00:00,76.8,0.8,30.01,West,264,3.0,8.0,5,0.00,,---,0.00,VWS V14.01,2013-04-19 21:00:00,
2013-04-19 14:05:00,76.7,0.7,30.01,WSW,252,4.0,5.0,5,0.00,,---,0.00,VWS V14.01,2013-04-19 21:05:00,
2013-04-19 14:10:00,77.7,1.4,30.00,NNW,341,1.0,5.0,5,0.00,,---,0.00,VWS V14.01,2013-04-19 21:10:00,
2013-04-19 14:15:00,78.3,-2.9,30.00,West,274,1.0,5.0,4,0.00,,---,0.00,VWS V14.01,2013-04-19 21:15:00,
2013-04-19 14:20:00,78.0,-3.1,30.00,West,269,0.0,5.0,4,0.00,,---,0.00,VWS V14.01,2013-04-19 21:20:00,
2013-04-19 14:25:00,77.9,-3.2,29.99,NE,46,2.0,5.0,4,0.00,,---,0.00,VWS V14.01,2013-04-19 21:25:00,
2013-04-19 14:30:00,78.3,1.9,29.99,South,189,2.0,5.0,5,0.00,,---,0.00,VWS V14.01,2013-04-19 21:30:00,
2013-04-19 14:35:00,78.7,2.1,29.98,SW,219,1.0,3.0,5,0.00,,---,0.00,VWS V14.01,2013-04-19 21:35:00,
2013-04-19 14:40:00,79.0,-2.4,29.98,SE,129,1.0,4.0,4,0.00,,---,0.00,VWS V14.01,2013-04-19 21:40:00,
2013-04-19 14:45:00,79.8,-1.8,29.97,South,188,0.0,4.0,4,0.00,,---,0.00,VWS V14.01,2013-04-19 21:45:00,
2013-04-19 14:50:00,80.2,3.2,29.97,SW,214,3.0,4.0,5,0.00,,---,0.00,VWS V14.01,2013-04-19 21:50:00,
2013-04-19 14:55:00,80.2,3.2,29.96,SW,222,4.0,5.0,5,0.00,,---,0.00,VWS V14.01,2013-04-19 21:55:00,
2013-04-19 15:00:00,79.9,3.0,29.95,SE,135,1.0,6.0,5,0.00,,---,0.00,VWS V14.01,2013-04-19 22:00:00,
2013-04-19 15:01:00,79.9,-1.8,29.96,SSW,212,0.0,6.0,4,0.00,,---,0.00,VWS V14.01,2013-04-19 22:01:00,
2013-04-19 15:06:00,80.0,-1.7,29.95,East,79,4.0,4.0,4,0.00,,---,0.00,VWS V14.01,2013-04-19 22:06:00,
2013-04-19 15:11:00,79.6,-7.9,29.95,ENE,74,0.0,6.0,3,0.00,,---,0.00,VWS V14.01,2013-04-19 22:11:00,
2013-04-19 15:16:00,79.9,3.0,29.95,WNW,287,5.0,6.0,5,0.00,,---,0.00,VWS V14.01,2013-04-19 22:16:00,
2013-04-19 15:21:00,80.3,-1.5,29.94,WNW,295,4.0,6.0,4,0.00,,---,0.00,VWS V14.01,2013-04-19 22:21:00,
2013-04-19 15:26:00,80.2,-1.6,29.94,NW,323,1.0,6.0,4,0.00,,---,0.00,VWS V14.01,2013-04-19 22:26:00,
2013-04-19 15:30:00,79.8,-7.8,29.94,West,270,2.0,7.0,3,0.00,,---,0.00,VWS V14.01,2013-04-19 22:30:00,
2013-04-19 15:31:00,80.0,-7.7,29.94,West,271,4.0,6.0,3,0.00,,---,0.00,VWS V14.01,2013-04-19 22:31:00,
2013-04-19 15:36:00,79.6,-2.0,29.93,NW,314,1.0,3.0,4,0.00,,---,0.00,VWS V14.01,2013-04-19 22:36:00,
2013-04-19 15:41:00,79.9,-1.8,29.93,North,5,1.0,4.0,4,0.00,,---,0.00,VWS V14.01,2013-04-19 22:41:00,
2013-04-19 15:46:00,80.3,-7.5,29.93,NW,314,3.0,4.0,3,0.00,,---,0.00,VWS V14.01,2013-04-19 22:46:00,
2013-04-19 15:51:00,79.9,-7.7,29.93,East,85,0.0,4.0,3,0.00,,---,0.00,VWS V14.01,2013-04-19 22:51:00,
2013-04-19 15:56:00,79.4,-8.1,29.92,ENE,77,0.0,4.0,3,0.00,,---,0.00,VWS V14.01,2013-04-19 22:56:00,
2013-04-19 16:00:00,79.4,-2.1,29.92,NW,315,2.0,8.0,4,0.00,,---,0.00,VWS V14.01,2013-04-19 23:00:00,
2013-04-19 16:01:00,79.6,-2.0,29.92,SW,235,4.0,8.0,4,0.00,,---,0.00,VWS V14.01,2013-04-19 23:01:00,
2013-04-19 16:06:00,79.2,-2.2,29.92,SW,230,3.0,9.0,4,0.00,,---,0.00,VWS V14.01,2013-04-19 23:06:00,
2013-04-19 16:12:00,79.0,-8.3,29.92,ESE,107,3.0,9.0,3,0.00,,---,0.00,VWS V14.01,2013-04-19 23:12:00,
2013-04-19 16:17:00,79.0,-8.3,29.92,WSW,256,4.0,11.0,3,0.00,,---,0.00,VWS V14.01,2013-04-19 23:17:00,
2013-04-19 16:22:00,79.2,-2.2,29.91,WSW,243,9.0,11.0,4,0.00,,---,0.00,VWS V14.01,2013-04-19 23:22:00,
2013-04-19 16:27:00,79.1,-2.3,29.91,WSW,241,2.0,11.0,4,0.00,,---,0.00,VWS V14.01,2013-04-19 23:27:00,
2013-04-19 16:30:00,78.7,-2.6,29.91,SW,225,4.0,11.0,4,0.00,,---,0.00,VWS V14.01,2013-04-19 23:30:00,
2013-04-19 16:32:00,78.8,-8.5,29.91,SW,233,3.0,11.0,3,0.00,,---,0.00,VWS V14.01,2013-04-19 23:32:00,
2013-04-19 16:37:00,78.6,-2.7,29.91,SSW,200,3.0,6.0,4,0.00,,---,0.00,VWS V14.01,2013-04-19 23:37:00,
2013-04-19 16:42:00,78.8,-8.5,29.91,West,277,1.0,7.0,3,0.00,,---,0.00,VWS V14.01,2013-04-19 23:42:00,
2013-04-19 16:47:00,78.8,-8.5,29.91,WSW,240,5.0,11.0,3,0.00,,---,0.00,VWS V14.01,2013-04-19 23:47:00,
2013-04-19 16:52:00,78.6,-8.6,29.90,WSW,245,8.0,11.0,3,0.00,,---,0.00,VWS V14.01,2013-04-19 23:52:00,
2013-04-19 16:57:00,78.2,-8.9,29.90,West,260,4.0,11.0,3,0.00,,---,0.00,VWS V14.01,2013-04-19 23:57:00,
2013-04-19 17:00:00,78.5,-8.7,29.90,WSW,248,4.0,11.0,3,0.00,,---,0.00,VWS V14.01,2013-04-20 00:00:00,
2013-04-19 17:03:00,78.4,-8.7,29.90,WSW,257,3.0,11.0,3,0.00,,---,0.00,VWS V14.01,2013-04-20 00:03:00,
2013-04-19 17:08:00,78.4,-16.8,29.90,West,274,4.0,7.0,2,0.00,,---,0.00,VWS V14.01,2013-04-20 00:08:00,
2013-04-19 17:13:00,78.1,-8.9,29.90,West,278,7.0,9.0,3,0.00,,---,0.00,VWS V14.01,2013-04-20 00:13:00,
2013-04-19 17:18:00,77.5,-9.4,29.90,WSW,242,7.0,11.0,3,0.00,,---,0.00,VWS V14.01,2013-04-20 00:18:00,
2013-04-19 17:23:00,77.5,-9.4,29.90,West,266,7.0,11.0,3,0.00,,---,0.00,VWS V14.01,2013-04-20 00:23:00,
2013-04-19 17:28:00,77.2,-9.6,29.90,West,281,8.0,11.0,3,0.00,,---,0.00,VWS V14.01,2013-04-20 00:28:00,
2013-04-19 17:30:00,77.2,-9.6,29.90,West,270,5.0,11.0,3,0.00,,---,0.00,VWS V14.01,2013-04-20 00:30:00,
2013-04-19 17:33:00,77.2,-9.6,29.90,SW,226,7.0,11.0,3,0.00,,---,0.00,VWS V14.01,2013-04-20 00:33:00,
2013-04-19 17:38:00,77.0,-9.7,29.90,WSW,257,6.0,11.0,3,0.00,,---,0.00,VWS V14.01,2013-04-20 00:38:00,
2013-04-19 17:43:00,76.7,-9.9,29.90,SW,229,4.0,12.0,3,0.00,,---,0.00,VWS V14.01,2013-04-20 00:43:00,
2013-04-19 17:48:00,76.6,-18.0,29.90,WSW,250,2.0,12.0,2,0.00,,---,0.00,VWS V14.01,2013-04-20 00:48:00,
2013-04-19 17:53:00,76.6,-9.9,29.89,WSW,245,4.0,12.0,3,0.00,,---,0.00,VWS V14.01,2013-04-20 00:53:00,
2013-04-19 17:58:00,76.2,-10.2,29.89,WSW,245,6.0,12.0,3,0.00,,---,0.00,VWS V14.01,2013-04-20 00:58:00,
2013-04-19 18:00:00,76.2,-10.2,29.89,WSW,248,4.0,12.0,3,0.00,,---,0.00,VWS V14.01,2013-04-20 01:00:00,
2013-04-19 18:03:00,76.2,-10.2,29.89,West,266,5.0,12.0,3,0.00,,---,0.00,VWS V14.01,2013-04-20 01:03:00,
2013-04-19 18:08:00,75.8,-18.5,29.89,WSW,242,5.0,9.0,2,0.00,,---,0.00,VWS V14.01,2013-04-20 01:08:00,
2013-04-19 18:13:00,75.6,-18.6,29.89,WSW,248,6.0,10.0,2,0.00,,---,0.00,VWS V14.01,2013-04-20 01:13:00,
2013-04-19 18:18:00,75.3,-18.8,29.89,WSW,243,4.0,10.0,2,0.00,,---,0.00,VWS V14.01,2013-04-20 01:18:00,
2013-04-19 18:23:00,74.9,-19.1,29.89,WSW,247,5.0,10.0,2,0.00,,---,0.00,VWS V14.01,2013-04-20 01:23:00,
2013-04-19 18:28:00,74.7,-19.2,29.89,West,259,4.0,10.0,2,0.00,,---,0.00,VWS V14.01,2013-04-20 01:28:00,
2013-04-19 18:30:00,74.3,-19.5,29.89,WSW,248,4.0,10.0,2,0.00,,---,0.00,VWS V14.01,2013-04-20 01:30:00,
2013-04-19 18:33:00,74.4,-19.4,29.89,WSW,253,4.0,10.0,2,0.00,,---,0.00,VWS V14.01,2013-04-20 01:33:00,
2013-04-19 18:39:00,73.9,-19.7,29.89,WSW,249,4.0,8.0,2,0.00,,---,0.00,VWS V14.01,2013-04-20 01:39:00,
2013-04-19 18:44:00,73.3,-12.2,29.89,West,267,3.0,8.0,3,0.00,,---,0.00,VWS V14.01,2013-04-20 01:44:00,
2013-04-19 18:49:00,72.7,-12.6,29.89,WSW,243,2.0,8.0,3,0.00,,---,0.00,VWS V14.01,2013-04-20 01:49:00,
2013-04-19 18:54:00,72.0,-13.0,29.89,WSW,242,5.0,8.0,3,0.00,,---,0.00,VWS V14.01,2013-04-20 01:54:00,
2013-04-19 18:59:00,71.4,-13.4,29.89,West,260,3.0,8.0,3,0.00,,---,0.00,VWS V14.01,2013-04-20 01:59:00,
2013-04-19 19:00:00,70.9,-8.0,29.90,West,270,4.0,8.0,4,0.00,,---,0.00,VWS V14.01,2013-04-20 02:00:00,
2013-04-19 19:04:00,70.9,-8.0,29.90,SW,231,3.0,8.0,4,0.00,,---,0.00,VWS V14.01,2013-04-20 02:04:00,
2013-04-19 19:09:00,70.4,-8.3,29.90,SW,236,3.0,6.0,4,0.00,,---,0.00,VWS V14.01,2013-04-20 02:09:00,
2013-04-19 19:14:00,69.9,-4.1,29.90,West,271,2.0,6.0,5,0.00,,---,0.00,VWS V14.01,2013-04-20 02:14:00,
2013-04-19 19:19:00,69.3,-4.5,29.90,WSW,250,1.0,6.0,5,0.00,,---,0.00,VWS V14.01,2013-04-20 02:19:00,
2013-04-19 19:24:00,68.9,-4.8,29.90,WSW,246,1.0,6.0,5,0.00,,---,0.00,VWS V14.01,2013-04-20 02:24:00,
2013-04-19 19:29:00,68.5,-5.1,29.90,WSW,250,0.0,6.0,5,0.00,,---,0.00,VWS V14.01,2013-04-20 02:29:00,
2013-04-19 19:30:00,68.0,-1.6,29.90,WSW,248,2.0,6.0,6,0.00,,---,0.00,VWS V14.01,2013-04-20 02:30:00,
2013-04-19 19:34:00,68.0,-1.6,29.90,West,278,0.0,0.0,6,0.00,,---,0.00,VWS V14.01,2013-04-20 02:34:00,
2013-04-19 19:39:00,67.5,-2.0,29.90,WSW,257,0.0,1.0,6,0.00,,---,0.00,VWS V14.01,2013-04-20 02:39:00,
2013-04-19 19:44:00,66.8,0.8,29.90,WSW,257,0.0,1.0,7,0.00,,---,0.00,VWS V14.01,2013-04-20 02:44:00,
2013-04-19 19:49:00,66.1,-3.0,29.90,WSW,257,0.0,1.0,6,0.00,,---,0.00,VWS V14.01,2013-04-20 02:49:00,
2013-04-19 19:54:00,65.5,-0.2,29.90,WSW,257,0.0,1.0,7,0.00,,---,0.00,VWS V14.01,2013-04-20 02:54:00,
2013-04-19 19:59:00,65.0,2.3,29.90,NE,35,1.0,2.0,8,0.00,,---,0.00,VWS V14.01,2013-04-20 02:59:00,
2013-04-19 20:00:00,64.4,1.8,29.91,NNE,22,0.0,4.0,8,0.00,,---,0.00,VWS V14.01,2013-04-20 03:00:00,
2013-04-19 20:04:00,64.2,1.7,29.91,NE,36,3.0,3.0,8,0.00,,---,0.00,VWS V14.01,2013-04-20 03:04:00,
2013-04-19 20:10:00,63.7,-1.5,29.91,ENE,74,0.0,3.0,7,0.00,,---,0.00,VWS V14.01,2013-04-20 03:10:00,
2013-04-19 20:15:00,63.6,-1.6,29.91,ENE,67,1.0,3.0,7,0.00,,---,0.00,VWS V14.01,2013-04-20 03:15:00,
2013-04-19 20:20:00,63.4,-1.8,29.91,ENE,68,0.0,3.0,7,0.00,,---,0.00,VWS V14.01,2013-04-20 03:20:00,
2013-04-19 20:25:00,63.3,-1.8,29.91,NE,34,3.0,4.0,7,0.00,,---,0.00,VWS V14.01,2013-04-20 03:25:00,
2013-04-19 20:30:00,63.3,-1.8,29.91,NE,44,2.0,5.0,7,0.00,,---,0.00,VWS V14.01,2013-04-20 03:30:00,
2013-04-19 20:35:00,63.4,-1.8,29.91,NE,43,2.0,3.0,7,0.00,,---,0.00,VWS V14.01,2013-04-20 03:35:00,
2013-04-19 20:40:00,63.5,-1.7,29.91,NE,39,3.0,5.0,7,0.00,,---,0.00,VWS V14.01,2013-04-20 03:40:00,
2013-04-19 20:45:00,63.5,-1.7,29.91,ENE,70,3.0,6.0,7,0.00,,---,0.00,VWS V14.01,2013-04-20 03:45:00,
2013-04-19 20:50:00,63.4,-1.8,29.91,NNE,33,0.0,6.0,7,0.00,,---,0.00,VWS V14.01,2013-04-20 03:50:00,
2013-04-19 20:55:00,63.4,-1.8,29.91,North,349,1.0,6.0,7,0.00,,---,0.00,VWS V14.01,2013-04-20 03:55:00,
2013-04-19 21:00:00,62.9,0.7,29.92,NNE,22,2.0,6.0,8,0.00,,---,0.00,VWS V14.01,2013-04-20 04:00:00,
2013-04-19 21:01:00,63.1,-2.0,29.92,NNE,29,4.0,6.0,7,0.00,,---,0.00,VWS V14.01,2013-04-20 04:01:00,
2013-04-19 21:02:00,63.0,0.8,29.92,NNW,347,0.0,6.0,8,0.00,,---,0.00,VWS V14.01,2013-04-20 04:02:00,
2013-04-19 21:07:00,62.6,0.5,29.92,NE,51,0.0,2.0,8,0.00,,---,0.00,VWS V14.01,2013-04-20 04:07:00,
2013-04-19 21:12:00,61.7,-0.2,29.92,ENE,61,0.0,3.0,8,0.00,,---,0.00,VWS V14.01,2013-04-20 04:12:00,
2013-04-19 21:17:00,61.0,1.8,29.92,NNE,22,1.0,3.0,9,0.00,,---,0.00,VWS V14.01,2013-04-20 04:17:00,
2013-04-19 21:22:00,60.6,1.5,29.92,NE,50,1.0,3.0,9,0.00,,---,0.00,VWS V14.01,2013-04-20 04:22:00,
2013-04-19 21:27:00,60.1,1.1,29.92,NE,43,1.0,4.0,9,0.00,,---,0.00,VWS V14.01,2013-04-20 04:27:00,
2013-04-19 21:30:00,59.6,0.7,29.92,NE,45,1.0,4.0,9,0.00,,---,0.00,VWS V14.01,2013-04-20 04:30:00,
2013-04-19 21:32:00,59.8,0.9,29.92,NNE,27,3.0,4.0,9,0.00,,---,0.00,VWS V14.01,2013-04-20 04:32:00,
2013-04-19 21:37:00,59.4,2.8,29.92,NE,46,2.0,4.0,10,0.00,,---,0.00,VWS V14.01,2013-04-20 04:37:00,
2013-04-19 21:42:00,59.3,2.8,29.92,NE,37,2.0,4.0,10,0.00,,---,0.00,VWS V14.01,2013-04-20 04:42:00,
2013-04-19 21:47:00,59.3,2.8,29.92,NE,49,2.0,4.0,10,0.00,,---,0.00,VWS V14.01,2013-04-20 04:47:00,
2013-04-19 21:53:00,59.2,2.7,29.92,NNE,33,5.0,6.0,10,0.00,,---,0.00,VWS V14.01,2013-04-20 04:53:00,
2013-04-19 21:58:00,59.1,2.6,29.92,NE,36,1.0,6.0,10,0.00,,---,0.00,VWS V14.01,2013-04-20 04:58:00,
2013-04-19 22:00:00,58.7,2.3,29.92,NE,45,2.0,6.0,10,0.00,,---,0.00,VWS V14.01,2013-04-20 05:00:00,
2013-04-19 22:03:00,58.8,2.4,29.92,NNE,25,1.0,6.0,10,0.00,,---,0.00,VWS V14.01,2013-04-20 05:03:00,
2013-04-19 22:08:00,58.6,2.2,29.92,NNE,29,2.0,4.0,10,0.00,,---,0.00,VWS V14.01,2013-04-20 05:08:00,
2013-04-19 22:13:00,58.3,4.0,29.92,NE,41,3.0,5.0,11,0.00,,---,0.00,VWS V14.01,2013-04-20 05:13:00,
2013-04-19 22:18:00,58.1,3.9,29.91,NE,47,2.0,5.0,11,0.00,,---,0.00,VWS V14.01,2013-04-20 05:18:00,
2013-04-19 22:23:00,57.8,3.7,29.91,NE,39,2.0,5.0,11,0.00,,---,0.00,VWS V14.01,2013-04-20 05:23:00,
2013-04-19 22:28:00,57.8,5.5,29.91,NNE,16,2.0,5.0,12,0.00,,---,0.00,VWS V14.01,2013-04-20 05:28:00,
2013-04-19 22:30:00,57.7,5.5,29.91,NE,45,2.0,5.0,12,0.00,,---,0.00,VWS V14.01,2013-04-20 05:30:00,
2013-04-19 22:33:00,57.7,5.5,29.91,ENE,60,2.0,5.0,12,0.00,,---,0.00,VWS V14.01,2013-04-20 05:33:00,
2013-04-19 22:38:00,57.5,5.3,29.91,North,349,3.0,4.0,12,0.00,,---,0.00,VWS V14.01,2013-04-20 05:38:00,
2013-04-19 22:43:00,57.3,5.1,29.90,NNE,18,4.0,4.0,12,0.00,,---,0.00,VWS V14.01,2013-04-20 05:43:00,
2013-04-19 22:49:00,57.3,5.1,29.91,NNE,12,3.0,6.0,12,0.00,,---,0.00,VWS V14.01,2013-04-20 05:49:00,
2013-04-19 22:54:00,57.1,5.0,29.91,NNE,12,3.0,6.0,12,0.00,,---,0.00,VWS V14.01,2013-04-20 05:54:00,
2013-04-19 22:59:00,57.1,5.0,29.90,NNE,20,5.0,6.0,12,0.00,,---,0.00,VWS V14.01,2013-04-20 05:59:00,
2013-04-19 23:00:00,57.0,6.7,29.90,NNE,22,3.0,6.0,13,0.00,,---,0.00,VWS V14.01,2013-04-20 06:00:00,
2013-04-19 23:04:00,57.0,6.7,29.90,NNE,23,3.0,6.0,13,0.00,,---,0.00,VWS V14.01,2013-04-20 06:04:00,
2013-04-19 23:09:00,56.8,4.8,29.91,NNE,18,3.0,4.0,12,0.00,,---,0.00,VWS V14.01,2013-04-20 06:09:00,
2013-04-19 23:14:00,56.7,6.4,29.91,NNE,27,2.0,5.0,13,0.00,,---,0.00,VWS V14.01,2013-04-20 06:14:00,
2013-04-19 23:19:00,56.4,6.2,29.91,NNE,25,2.0,5.0,13,0.00,,---,0.00,VWS V14.01,2013-04-20 06:19:00,
2013-04-19 23:24:00,56.2,6.0,29.91,NNE,29,5.0,5.0,13,0.00,,---,0.00,VWS V14.01,2013-04-20 06:24:00,
2013-04-19 23:29:00,56.1,5.9,29.91,NNE,18,4.0,5.0,13,0.00,,---,0.00,VWS V14.01,2013-04-20 06:29:00,
2013-04-19 23:30:00,55.9,5.8,29.91,NNE,22,3.0,6.0,13,0.00,,---,0.00,VWS V14.01,2013-04-20 06:30:00,
2013-04-19 23:34:00,55.9,5.8,29.91,North,356,1.0,4.0,13,0.00,,---,0.00,VWS V14.01,2013-04-20 06:34:00,
2013-04-19 23:39:00,55.6,5.6,29.91,NNE,18,4.0,5.0,13,0.00,,---,0.00,VWS V14.01,2013-04-20 06:39:00,
2013-04-19 23:44:00,55.8,5.7,29.91,NNE,21,2.0,5.0,13,0.00,,---,0.00,VWS V14.01,2013-04-20 06:44:00,
2013-04-19 23:49:00,55.9,4.0,29.91,NNE,23,3.0,7.0,12,0.00,,---,0.00,VWS V14.01,2013-04-20 06:49:00,
2013-04-19 23:54:00,56.0,4.1,29.92,NE,44,3.0,7.0,12,0.00,,---,0.00,VWS V14.01,2013-04-20 06:54:00,
2013-04-19 23:59:00,56.2,4.3,29.92,NNW,345,2.0,7.0,12,0.00,,---,0.00,VWS V14.01,2013-04-20 06:59:00,